Flag for Austria Weather past 2 weeks in Graz, Styria, Austria

Now
64 °F

Broken clouds.


Feels Like: 64 °F
Forecast: 55 / 67 °F
Wind: 1 mph from North

Location: Graz-Thalerhof-Flughafen

Current Time: Oct 1, 2014 at 2:20:40 PM

Latest Report: Oct 1, 2014 at 1:50 PM


Visibility: N/A

Pressure: 30.27 "Hg

Humidity: 83%

Dew point: 59 °F

Location of GrazLocation

Historic Weather in Graz — Graph

°F

Graz temperature yesterday

Maximum temperature yesterday: 72 °F (at 2:50 PM)
Minimum temperature yesterday: 46 °F (at 4:50 AM)
Average temperature yesterday: 58 °F

Past Weeks' High & Low Weather Summary

 TemperatureHumidityPressure
High77 °F (Sep 21, 2:20 PM)100% (Sep 17, 12:50 AM)30.42 "Hg (Sep 17, 12:50 AM)
Low37 °F (Sep 24, 5:50 AM)35% (Sep 22, 2:50 PM)29.83 "Hg (Sep 22, 2:50 AM)
Average57 °F82%30.12 "Hg
* Reported Sep 16 12:20 PM — Oct 1 12:50 PM, Graz, Weather by CustomWeather, © 2014

Note: Actual official high and low records may vary slightly from our data, if they occured in-between our weather recording intervals... More about our weather records

Advertising

Graz weather history for previous 24 hours

 ConditionsComfort  
Time TempWeatherWind HumidityBarometerVisibility
12:50 PM
Oct 1
63 °FBroken clouds.1 mph88%30.27 "HgN/A
12:20 PM63 °FBroken clouds.2 mph83%30.27 "HgN/A
11:50 AM61 °FBroken clouds.1 mph88%30.27 "Hg6 mi
11:20 AM61 °FBroken clouds.2 mph94%30.30 "Hg5 mi
10:50 AM61 °FBroken clouds.3 mph94%30.30 "Hg5 mi
10:20 AM59 °FBroken clouds.3 mph94%30.30 "Hg5 mi
9:50 AM59 °FBroken clouds.2 mph94%30.27 "Hg5 mi
9:20 AM59 °FBroken clouds.2 mph94%30.27 "Hg4 mi
8:50 AM57 °FBroken clouds.2 mph94%30.27 "Hg4 mi
8:20 AM55 °FFog.2 mph100%30.27 "Hg3 mi
7:50 AM55 °FSnow. Fog.2 mph94%30.27 "Hg4 mi
7:20 AM54 °FSleet. Overcast.1 mph100%30.27 "Hg2 mi
6:50 AM54 °FSnow. Overcast.2 mph100%30.27 "Hg2 mi
6:20 AM54 °FFog.1 mph100%30.24 "Hg2 mi
5:50 AM54 °FCool.1 mph100%30.24 "Hg2 mi
5:20 AM54 °FCool.2 mph100%30.24 "Hg2 mi
4:50 AM54 °FCool.1 mph100%30.27 "Hg2 mi
4:20 AM54 °FCool.1 mph100%30.27 "Hg2 mi
3:50 AM54 °FCool.1 mph100%30.27 "Hg2 mi
3:20 AM54 °FFog.1 mph100%30.27 "Hg1 mi
2:50 AM54 °FPassing clouds.1 mph100%30.27 "Hg0 mi
2:20 AM54 °FSnow. Overcast.1 mph100%30.27 "Hg1 mi
1:50 AM54 °FSnow. Overcast.1 mph100%30.27 "Hg3 mi
1:20 AM54 °FSnow. Overcast.No wind94%30.27 "Hg1 mi
12:50 AM55 °FCool.1 mph94%30.27 "Hg2 mi
12:20 AM55 °FCool.1 mph94%30.27 "Hg2 mi
11:50 PM
Sep 30
55 °FCool.No wind94%30.27 "Hg5 mi
11:20 PM57 °FClear.1 mph94%30.27 "Hg10 mi
10:50 PM57 °FClear.No wind100%30.27 "Hg10 mi
10:20 PM59 °FClear.1 mph88%30.30 "Hg10 mi
9:50 PM59 °FClear.1 mph94%30.30 "Hg10 mi
9:20 PM61 °FClear.1 mph88%30.30 "Hg10 mi
8:50 PM61 °FClear.1 mph88%30.30 "Hg10 mi
8:20 PM61 °FClear.1 mph88%30.27 "Hg10 mi
7:50 PM61 °FClear.1 mph88%30.27 "Hg10 mi
7:20 PM63 °FSunny.3 mph83%30.27 "Hg10 mi
6:50 PM63 °FSunny.5 mph83%30.27 "Hg10 mi
6:20 PM64 °FSunny.6 mph78%30.27 "Hg10 mi
5:50 PM68 °FSunny.7 mph69%30.27 "Hg10 mi
5:20 PM70 °FPassing clouds.7 mph64%30.27 "HgN/A
4:50 PM70 °FScattered clouds.6 mph64%30.27 "HgN/A
4:20 PM72 °FScattered clouds.7 mph61%30.24 "HgN/A
3:50 PM72 °FScattered clouds.5 mph61%30.27 "HgN/A
3:20 PM72 °FPassing clouds.5 mph57%30.27 "HgN/A
2:50 PM72 °FPassing clouds.6 mph61%30.27 "HgN/A
2:20 PM70 °FPassing clouds.6 mph64%30.27 "HgN/A
Weather by CustomWeather, © 2014

See weather overviewHow to use our weather pages